Regional Weather Roundup
Issued by NWS Huntsville, AL

Home | Current Version | Previous Version | Text Only | Print | Product List | Glossary On
Versions: 1 2 3 4 5 6 7 8 9 10 11 12 13 14 15 16 17 18 19 20 21 22 23 24 25 26 27 28 29 30 31 32 33 34 35 36 37 38 39 40 41 42 43 44 45 46 47 48 49 50
000
ASUS44 KHUN 220610
RWRHUN

WEATHER ROUNDUP FOR THE TENNESSEE VALLEY
NATIONAL WEATHER SERVICE HUNTSVILLE AL
100 AM CDT TUE MAY 22 2018

ALZ001>004-220700-
NORTHWEST ALABAMA

CITY           SKY/WX    TMP DP  RH WIND       PRES   REMARKS
COURTLAND HCN    N/A     68 N/A N/A CALM        N/A
RUSSELLVILLE     N/A     64 N/A N/A MISG        N/A
SHOALS AIRPORT FAIR      69  65  86 E6        30.04F
6HR MIN TEMP:  69; 6HR MAX TEMP:  80;

SHOALS TVA RES   N/A     68 N/A N/A MISG        N/A
$$

ALZ005>007-016-220700-
NORTH CENTRAL ALABAMA

CITY           SKY/WX    TMP DP  RH WIND       PRES   REMARKS
CULLMAN AG STN   N/A     68 N/A N/A CALM        N/A
DECATUR AP     FAIR      66  65  96 CALM      30.05F
6HR MIN TEMP:  66; 6HR MAX TEMP:  78;

HUNTSVILLE AP  CLOUDY    72  67  84 E6        30.05F
6HR MIN TEMP:  72; 6HR MAX TEMP:  80;

MERIDIANVILLE  CLOUDY    70  66  89 CALM      30.06F
REDSTONE ARSN  LGT RAIN  71  66  83 S5        30.04F
VINEMONT AP    FAIR      69  65  85 SE3       30.08F
$$

ALZ008>010-220700-
NORTHEAST ALABAMA

CITY           SKY/WX    TMP DP  RH WIND       PRES   REMARKS
ALBERTVILLE    FAIR      68  68 100 CALM      30.06F
FORT PAYNE     MOCLDY    70  63  78 CALM      30.07F
SCOTTSBORO AP  FAIR      70  70 100 CALM      30.07F
SCOTTSBORO HCN   N/A     70 N/A N/A MISG        N/A
VALLEY HEAD      N/A     72 N/A N/A MISG        N/A
$$

TNZ076-096-097-220700-
SOUTHEASTERN MIDDLE TENNESSEE

CITY           SKY/WX    TMP DP  RH WIND       PRES   REMARKS
TULLAHOMA      CLOUDY    70  64  83 SE5       30.07S
WINCHESTER     CLOUDY    70  64  83 SE5       30.08S
$$

...SURROUNDING SITES...

CITY           SKY/WX    TMP DP  RH WIND       PRES   REMARKS
ATLANTA        MOCLDY    70  65  84 E5        30.10S
ANNISTON       FAIR      69  66  90 NE5       30.06F
BIRMINGHAM     FAIR      71  67  87 E5        30.06F
CHATTANOOGA    CLOUDY    74  63  68 S3        30.08F
CORINTH          N/A     70  70 100 CALM      30.01F FOG
DALTON         CLOUDY    70  63  78 CALM      30.11S
GADSDEN        FAIR      69  68  96 CALM      30.06F
GOLDEN TRNGL   FAIR      73  68  84 SE9       30.01F
HALEYVILLE     FAIR      65  65 100 CALM      30.07F
JACKSON TN     FAIR      71  70  96 CALM      30.02F
MEMPHIS        FAIR      75  72  90 E5        30.00F
NASHVILLE      FAIR      72  61  68 SE3       30.04F
ROME           CLOUDY    73  66  78 SE3       30.08F
SAVANNAH       CLOUDY    72  70  94 CALM      30.02F
SELMER         CLEAR     68  68 100 CALM      30.02F
TUPELO         FAIR      75  66  73 E5        30.00F
TUSCALOOSA     FAIR      73  69  87 E3        30.02F
$$

...GULF COAST WEATHER...

CITY           SKY/WX    TMP DP  RH WIND       PRES   REMARKS
GULFPORT       FAIR      72  70  93 CALM      29.98F
PASCAGOULA     FAIR      70  68  93 CALM      29.99F
MOBILE         FAIR      72  70  93 CALM      30.00F
GULF SHORES    FAIR      71  71 100 CALM      29.99F
PENSACOLA      MOCLDY    74  72  93 CALM      29.99
DESTIN         FAIR      77  69  76 VRB3      29.99F
PANAMA CITY    DRIZZLE   75  73  95 SE7       30.00F
APPALACHICOLA  CLOUDY    77  75  93 SE14      30.01F
$$




USA.gov is the U.S. government's official web portal to all federal, state and local government web resources and services.